[[{"header":{"parameterUnit":"m.s-1","parameterCategory":1,"la1":30.2991,"la2":30.254,"lo1":-89.0895,"lo2":-89.0444,"dy":0.0017,"dx":0.0017,"nx":28,"ny":28,"refTime":"2024-04-04T03:00:00:Z","depth":0,"parameterNumber":2,"parameterNumberName":"U-component_of_WINDS"},"data":[0,0,0,0,0,0,0,0,0,0,0,0,0,0,0,0,0,0,0,0,0,0,0,0,0,0,0,0,0,0,0,0,0,0,0,0,0,0,0,0,0,0,0,0,0,0,0,0,0,0,0,0,0,0,0,0,0,0,3.0189,3.0189,0,3.0243,3.0244,3.0245,3.0166,3.0163,3.016,3.0157,3.0215,3.0219,3.0223,0,0,0,0,0,0,0,0,0,0,0,0,0,3.0019,3.0022,3.0189,3.0189,3.019,3.0243,3.0244,3.0245,3.0166,3.0163,3.0159,3.0156,3.0213,3.0218,3.0223,0,0,0,0,0,0,0,0,0,0,0,0,0,3.0085,3.0023,3.0189,3.0157,3.0155,3.0243,3.0244,3.0245,3.0167,3.0163,3.0159,3.0155,3.0212,3.0218,3.0224,3.0345,0,0,3.0243,3.0245,0,0,0,0,0,0,0,0,3.0081,3.0091,3.0161,3.016,3.0157,3.0193,3.0205,3.0279,3.0168,3.0162,3.0157,3.0153,3.0211,3.0217,3.0236,3.0348,3.0351,3.0243,3.0247,3.025,3.0251,0,0,0,0,0,0,0,3.0077,3.0089,3.021,3.0162,3.016,3.0141,3.0146,3.0219,3.021,3.0163,3.0157,3.0164,3.0209,3.0231,3.0237,3.0351,3.0243,3.0248,3.0252,3.0255,3.0569,3.0574,0,0,0,0,0,0,3.0076,3.0085,3.0209,3.0212,3.0108,3.0148,3.0153,3.0186,3.0209,3.0208,3.0168,3.0161,3.0222,3.023,3.0239,3.0386,3.025,3.0255,3.0259,3.0565,3.057,3.0575,0,0,0,0,0,0,3.0072,3.0087,3.0206,3.0147,3.0161,3.0155,3.0193,3.0189,3.0211,3.0213,3.0211,3.0192,3.0219,3.023,3.032,3.0387,3.0258,3.0264,3.0559,3.0566,3.0573,3.0679,0,0,0,0,0,0,3.0068,3.0087,3.0132,3.0149,3.0164,3.0287,3.0197,3.0193,3.0222,3.0212,3.0234,3.0234,3.0217,3.0312,3.0326,3.0393,3.0269,3.0553,3.0562,3.057,3.067,3.0689,3.0705,0,0,0,0,0,3.0062,3.016,3.0135,3.015,3.0221,3.0291,3.0299,3.0278,3.0227,3.0274,3.0275,3.0233,3.0376,3.0321,3.0337,3.0407,3.0549,3.056,3.057,3.0662,3.0685,3.0705,0,0,0,0,0,0,3.0152,3.0161,3.0134,3.024,3.0265,3.0277,3.0335,3.0302,3.0343,3.0333,3.0304,3.0309,3.0407,3.0415,3.0354,3.0527,3.0454,3.0469,3.0519,3.0541,3.0559,3.0556,3.0274,0,0,0,0,0,3.0184,3.0239,3.0244,3.0337,3.0351,3.0341,3.037,3.0351,3.0376,3.0387,3.0394,3.0421,3.0472,3.0506,3.0553,3.067,3.0675,3.0725,3.0743,3.0758,3.0772,3.0837,3.0861,3.061,3.0609,3.0609,0,0,3.0251,3.0263,3.0299,3.0355,3.0373,3.0432,3.0351,3.0415,3.046,3.0396,3.0483,3.049,3.0517,3.0622,3.0669,3.0632,3.0842,3.0771,3.0783,3.0789,3.085,3.0874,3.0895,3.0617,3.0615,3.0614,0,0,3.0404,3.0417,3.0497,3.0516,3.0543,3.0536,3.0556,3.0573,3.0576,3.0661,3.0616,3.0668,3.0756,3.0778,3.0801,3.0964,3.0929,3.098,3.1074,3.1139,3.1159,3.1176,3.1238,3.126,3.0993,3.0993,3.0993,0,3.0484,3.057,3.0543,3.0612,3.064,3.0584,3.0667,3.0687,3.0728,3.0749,3.0707,3.0818,3.0832,3.0943,3.0983,3.1002,3.1026,3.0979,3.1158,3.1175,3.1191,3.125,3.1272,3.0999,3.0999,3.0998,3.0998,0,3.0669,3.073,3.0792,3.0834,3.0867,3.0943,3.0928,3.0966,3.0944,3.0942,3.1031,3.1047,3.1097,3.1121,3.11,3.123,3.1207,3.1162,3.1089,3.1222,3.1277,3.1298,3.1009,3.1006,3.1004,3.1003,0,0,3.0882,3.0908,3.0932,3.0952,3.0978,3.1025,3.1098,3.1147,3.1182,3.1212,3.1275,3.1351,3.131,3.1336,3.1316,3.1372,3.1505,3.132,3.1321,3.1358,3.1654,3.1691,3.1717,3.148,3.1484,3.1487,3.1653,0,3.1038,3.1165,3.1143,3.1267,3.1325,3.1274,3.1338,3.1362,3.1362,3.1411,3.141,3.1467,3.1406,3.1422,3.1475,3.1478,3.1565,3.1465,3.1541,3.1544,3.154,3.1745,3.1784,3.194,3.1674,3.1677,3.168,0,3.1237,3.1276,3.1406,3.1425,3.1448,3.1507,3.1552,3.1598,3.1625,3.1621,3.1651,3.1622,3.1697,3.162,3.1724,3.1657,3.1687,3.1693,3.1698,3.1708,3.1623,3.1764,3.1988,3.2013,3.1712,3.171,3.1707,0,3.1384,3.1468,3.1558,3.1576,3.1599,3.1642,3.1654,3.1676,3.1708,3.1747,3.1768,3.1815,3.1842,3.1879,3.1864,3.1809,3.1973,3.1894,3.1975,3.1975,3.2014,3.2013,3.2251,3.2027,3.2027,3.2026,3.2026,0,3.1563,3.1646,3.1625,3.1681,3.1772,3.1746,3.1838,3.1843,3.1864,3.1921,3.1878,3.1933,3.1907,3.196,3.1949,3.2039,3.205,3.2051,3.2048,3.2058,3.2058,3.2079,3.207,3.2032,3.2031,3.203,3.2029,0,3.1745,3.1733,3.1829,3.1843,3.1849,3.1916,3.1929,3.1982,3.1978,3.2051,3.2067,3.2062,3.2122,3.211,3.2176,3.2168,3.2283,3.2264,3.2275,3.2272,3.2355,3.2349,3.2618,3.2654,3.2403,3.2405,3.2407,0,3.1862,3.1924,3.1946,3.1981,3.1996,3.2053,3.2086,3.2062,3.2098,3.2133,3.2183,3.2239,3.2284,3.2383,3.2386,3.2437,3.2422,3.2512,3.243,3.2438,3.2428,3.2427,3.2435,3.2531,3.2533,3.2536,3.2537,0,3.2072,3.2063,3.2111,3.2159,3.2199,3.2235,3.2267,3.2298,3.2277,3.232,3.2382,3.2416,3.2484,3.2542,3.259,3.2603,3.2569,3.2563,3.2585,3.2598,3.2603,3.2606,3.2324,3.2558,3.2556,3.2554,3.2553,3.2552,3.2227,3.2282,3.2307,3.2362,3.2384,3.2415,3.2467,3.2469,3.252,3.2574,3.2556,3.2628,3.2654,3.2714,3.2733,3.2789,3.2756,3.2787,3.2795,3.2805,3.2817,3.2591,3.2797,3.2797,3.2796,3.2796,3.2795,0,3.2439,3.2452,3.2504,3.255,3.2595,3.2556,3.259,3.263,3.2693,3.272,3.2765,3.2837,3.2894,3.2901,3.2954,3.2998,3.2984,3.3014,3.3012,3.3017,3.2842,3.2819,3.3025,3.3025,3.3024,3.3024,3.3024,3.3024,3.2555,3.2646,3.2641,3.2743,3.2755,3.2825,3.2848,3.2877,3.2899,3.2982,3.3028,3.3032,3.3052,3.3107,3.3158,3.3158,3.3182,3.3219,3.3214,3.3051,3.3029,3.3007,3.2986,3.3223,3.3223,3.3385,3.3387,3.3388]},{"header":{"parameterUnit":"m.s-1","parameterCategory":1,"la1":30.2991,"la2":30.254,"lo1":-89.0895,"lo2":-89.0444,"dy":0.0017,"dx":0.0017,"nx":28,"ny":28,"refTime":"2024-04-04T03:00:00:Z","depth":0,"parameterNumber":3,"parameterNumberName":"V-component_of_WINDS"},"data":[0,0,0,0,0,0,0,0,0,0,0,0,0,0,0,0,0,0,0,0,0,0,0,0,0,0,0,0,0,0,0,0,0,0,0,0,0,0,0,0,0,0,0,0,0,0,0,0,0,0,0,0,0,0,0,0,0,0,-4.1049,-4.1051,0,-4.1235,-4.1237,-4.1239,-4.1254,-4.1252,-4.125,-4.1248,-4.1442,-4.1449,-4.1455,0,0,0,0,0,0,0,0,0,0,0,0,0,-4.0712,-4.0718,-4.1049,-4.1052,-4.1054,-4.1235,-4.1237,-4.124,-4.1255,-4.1252,-4.125,-4.1247,-4.1439,-4.1448,-4.1456,0,0,0,0,0,0,0,0,0,0,0,0,0,-4.0874,-4.072,-4.1049,-4.1083,-4.1088,-4.1234,-4.1237,-4.124,-4.1255,-4.1252,-4.1249,-4.1246,-4.1437,-4.1447,-4.1457,-4.1583,0,0,-4.149,-4.1494,0,0,0,0,0,0,0,0,-4.0865,-4.0886,-4.1076,-4.1081,-4.1087,-4.1218,-4.1189,-4.1356,-4.1256,-4.1192,-4.1248,-4.1245,-4.137,-4.1386,-4.1427,-4.1592,-4.1601,-4.149,-4.1497,-4.1501,-4.1504,0,0,0,0,0,0,0,-4.0853,-4.0878,-4.1123,-4.1078,-4.1085,-4.109,-4.111,-4.1221,-4.1296,-4.1197,-4.1199,-4.122,-4.1372,-4.1417,-4.1432,-4.1603,-4.149,-4.15,-4.1506,-4.151,-4.1882,-4.1885,0,0,0,0,0,0,-4.0835,-4.0869,-4.1117,-4.1128,-4.0966,-4.1099,-4.1121,-4.1179,-4.1295,-4.1309,-4.1223,-4.122,-4.1401,-4.142,-4.1439,-4.1594,-4.1501,-4.1511,-4.1517,-4.1878,-4.1882,-4.1886,0,0,0,0,0,0,-4.0828,-4.0857,-4.1109,-4.0999,-4.1032,-4.1108,-4.1173,-4.1184,-4.1229,-4.1314,-4.1328,-4.1254,-4.1399,-4.1424,-4.1547,-4.1601,-4.1516,-4.1526,-4.1874,-4.1879,-4.1884,-4.1904,0,0,0,0,0,0,-4.0818,-4.0854,-4.0902,-4.1,-4.1037,-4.1213,-4.1177,-4.119,-4.1247,-4.1246,-4.1347,-4.1361,-4.1399,-4.1531,-4.1558,-4.1614,-4.1534,-4.1869,-4.1876,-4.1883,-4.1899,-4.1909,-4.1918,0,0,0,0,0,-4.0806,-4.0901,-4.0904,-4.0934,-4.1098,-4.1216,-4.1238,-4.1278,-4.1251,-4.13,-4.1355,-4.1358,-4.1591,-4.1544,-4.1574,-4.1633,-4.1866,-4.1874,-4.1882,-4.1894,-4.1907,-4.1918,0,0,0,0,0,0,-4.0808,-4.0914,-4.0919,-4.1048,-4.1123,-4.1218,-4.1281,-4.129,-4.1375,-4.137,-4.1418,-4.1441,-4.1562,-4.1611,-4.1556,-4.1762,-4.1726,-4.174,-4.1725,-4.1738,-4.1747,-4.1732,-4.1543,0,0,0,0,0,-4.0823,-4.0909,-4.0998,-4.1103,-4.114,-4.1204,-4.1257,-4.1282,-4.1362,-4.1394,-4.1457,-4.1535,-4.1626,-4.1685,-4.1774,-4.1907,-4.1929,-4.1963,-4.1973,-4.198,-4.1991,-4.2065,-4.2081,-4.1912,-4.1912,-4.1912,0,0,-4.0856,-4.0924,-4.0976,-4.1105,-4.1166,-4.1254,-4.1231,-4.1326,-4.1392,-4.1409,-4.1528,-4.1578,-4.1668,-4.1797,-4.1857,-4.1841,-4.2043,-4.199,-4.1996,-4.2003,-4.2075,-4.2091,-4.2105,-4.1918,-4.1917,-4.1916,0,0,-4.096,-4.1021,-4.1115,-4.1176,-4.1268,-4.1311,-4.1333,-4.1428,-4.1461,-4.1582,-4.1596,-4.1677,-4.1832,-4.1896,-4.1949,-4.2079,-4.2085,-4.2107,-4.2157,-4.2229,-4.2242,-4.2254,-4.23,-4.2316,-4.2119,-4.2119,-4.2119,0,-4.0989,-4.1121,-4.1162,-4.1257,-4.1314,-4.1332,-4.1429,-4.1487,-4.1604,-4.1643,-4.1624,-4.1819,-4.1882,-4.2025,-4.2057,-4.21,-4.2128,-4.2095,-4.2237,-4.2249,-4.2261,-4.2305,-4.2322,-4.2121,-4.212,-4.212,-4.212,0,-4.1152,-4.1245,-4.131,-4.1421,-4.1486,-4.1581,-4.1637,-4.1698,-4.1718,-4.1762,-4.1886,-4.1961,-4.2065,-4.2102,-4.2122,-4.2249,-4.2236,-4.2227,-4.2191,-4.2278,-4.232,-4.2338,-4.2123,-4.2123,-4.2122,-4.2122,0,0,-4.1261,-4.1394,-4.1417,-4.1468,-4.1571,-4.1644,-4.1741,-4.1842,-4.1893,-4.1974,-4.2056,-4.2188,-4.218,-4.224,-4.2268,-4.2331,-4.2429,-4.2314,-4.2317,-4.2332,-4.2573,-4.2578,-4.2597,-4.2434,-4.2438,-4.2441,-4.2565,0,-4.1376,-4.1546,-4.1587,-4.1733,-4.1819,-4.1839,-4.1923,-4.1997,-4.2042,-4.2123,-4.2173,-4.2265,-4.2248,-4.2284,-4.2348,-4.2403,-4.2478,-4.2395,-4.2512,-4.2515,-4.2486,-4.2619,-4.2625,-4.2738,-4.2581,-4.2584,-4.2586,0,-4.1532,-4.1615,-4.1769,-4.1862,-4.19,-4.1974,-4.207,-4.2147,-4.2232,-4.226,-4.2328,-4.235,-4.2453,-4.2413,-4.2556,-4.2499,-4.2549,-4.2584,-4.259,-4.2601,-4.2554,-4.2632,-4.2775,-4.2791,-4.2613,-4.2611,-4.2609,0,-4.1594,-4.1745,-4.1857,-4.19,-4.2011,-4.2063,-4.2112,-4.2194,-4.2252,-4.2337,-4.2375,-4.2471,-4.2523,-4.2598,-4.2646,-4.2613,-4.2785,-4.2749,-4.2811,-4.281,-4.2844,-4.2841,-4.2996,-4.288,-4.288,-4.2879,-4.2879,0,-4.1717,-4.181,-4.1886,-4.1954,-4.206,-4.2107,-4.2211,-4.2261,-4.2334,-4.2413,-4.2438,-4.2512,-4.2572,-4.2655,-4.2694,-4.2806,-4.283,-4.2856,-4.2865,-4.2853,-4.2849,-4.2885,-4.2878,-4.2884,-4.2883,-4.2882,-4.2881,0,-4.1803,-4.1857,-4.198,-4.2076,-4.2102,-4.2176,-4.2258,-4.2327,-4.2373,-4.2473,-4.25,-4.2573,-4.2672,-4.2728,-4.2853,-4.288,-4.3004,-4.301,-4.2974,-4.2978,-4.3036,-4.3029,-4.3218,-4.3244,-4.3112,-4.3113,-4.3114,0,-4.1877,-4.1949,-4.2052,-4.2106,-4.2156,-4.2244,-4.2303,-4.2353,-4.2414,-4.2517,-4.2573,-4.2673,-4.2756,-4.2914,-4.2979,-4.3075,-4.3082,-4.3142,-4.3097,-4.3082,-4.3082,-4.3076,-4.3083,-4.3149,-4.315,-4.3151,-4.3152,0,-4.2002,-4.2025,-4.2109,-4.2203,-4.2272,-4.2349,-4.2425,-4.2469,-4.2532,-4.26,-4.2701,-4.2765,-4.2893,-4.2992,-4.3094,-4.3146,-4.316,-4.3166,-4.3185,-4.3172,-4.3148,-4.3161,-4.2994,-4.3161,-4.316,-4.3159,-4.3159,-4.3158,-4.2083,-4.2148,-4.223,-4.2323,-4.2386,-4.2457,-4.2525,-4.258,-4.2665,-4.2771,-4.2797,-4.2903,-4.2988,-4.3125,-4.318,-4.3265,-4.3254,-4.3282,-4.3289,-4.3295,-4.3296,-4.3137,-4.3284,-4.3284,-4.3284,-4.3284,-4.3284,0,-4.2208,-4.2262,-4.2347,-4.2452,-4.2526,-4.2532,-4.2617,-4.2678,-4.2771,-4.2848,-4.2929,-4.3046,-4.3143,-4.3216,-4.3315,-4.3369,-4.3378,-4.3394,-4.3389,-4.3401,-4.3301,-4.3273,-4.3385,-4.3385,-4.3385,-4.3385,-4.3385,-4.3385,-4.2281,-4.2391,-4.2425,-4.2567,-4.2621,-4.2724,-4.2772,-4.2838,-4.29,-4.3028,-4.3108,-4.3155,-4.3231,-4.3337,-4.3426,-4.3446,-4.3481,-4.3495,-4.3515,-4.3419,-4.3408,-4.3398,-4.3372,-4.3503,-4.3503,-4.3608,-4.3609,-4.361]}]]